Weather in Roshhino

Russia / Tyumen Oblast     57°09′16″N   65°25′46″E
temp.,
°C
wind,
m/s
gust,
m/s
humid.,
%
clouds,
%
prec.,
mm/h
press.,
hPa
HPBL,
m
16 may, sun
sun1623:00+23w49395 0.1 1015169
02:00+19wnw3546100 0.0 101667
05:00+18w3654100 0.0 101795
08:00+23w5104965 0.0 1016419
11:00+28wnw710385 0.0 10161326
14:00+31wnw7112577 0.0 10162682
17:00+32nw6102451 0.0 10153224
20:00+27w463457 0.0 101578
17 may, mon
mon1723:00+22w483419 0.0 1015106
02:00+20w411415 0.0 1015167
05:00+19wsw410535 0.0 1016165
08:00+24w59445 0.0 1016398
11:00+30w711272 0.0 10153024
14:00+31wsw9122236 0.0 10133581
17:00+30w6112269 0.0 10123376
20:00+20ene34570 0.1 1013132
18 may, tue
tue1823:00+19wsw5126247 0.3 1013240
02:00+18w49656 0.0 1013156
05:00+17w37725 0.0 1012127
08:00+21nw695463 0.1 1012684
11:00+23nw71043100 0.1 10122050
14:00+22nnw9945100 0.0 10132000
17:00+17n9116457 0.3 10161228
20:00+13n71074100 0.1 10181026
19 may, wed
wed1923:00+11nne7117462 0.1 1021860
02:00+10n510792 0.0 1022617
05:00+8n511821 0.0 1024465
08:00+12nne56535 0.0 1026952
11:00+16nne45385 0.0 10251452
14:00+19n453481 0.0 10251814
17:00+20n4533100 0.0 10241927
20:00+16ne33485 0.0 102456
20 may, thu
thu2023:00+12ese3355100 0.0 102543
02:00+10se22575 0.0 102619
05:00+10s346173 0.0 102561
08:00+15sw354993 0.0 1025379
11:00+21w56365 0.0 10241378
14:00+24wsw67295 0.0 10221795
17:00+25wsw67275 0.0 10201791
20:00+20wsw49440 0.0 1019161